Location: Lachaise
(45.8833°N, 1.8500°E)
Time: 03:56:40
(UTC+00:00)

STARLINK-1293 - Pass Details

Date: 07 June 2020
Orbit: 549 x 551 km, 53.0° (Epoch: 14 July)

Event Time Altitude Azimuth Distance (km) Brightness Sun altitude
Exits shadow 00:27:22 44° 254° (WSW) 771 4.1 -20.9°
Maximum altitude 00:28:36 77° 331° (NNW) 572 3.7 -20.8°
Drops below altitude 10° 00:32:47 10° 57° (ENE) 1,837 6.8 -20.7°
Enters shadow 01:34:28 -60° 251° (WSW) 11,681 10.3 -17.5°
